﻿測定場所 (Monitoring sites),日付 (Measurement date),時間 (Measurement time),線量率 最大値 (max) μGy/h,線量率 最小値 (min) μGy/h,線量率 平均値 (average) μGy/h,
江戸川 (Edogawa),2017-07-02,23:01～24:00,0.0575,0.0502,0.0539,
江戸川 (Edogawa),2017-07-02,22:01～23:00,0.0574,0.0505,0.0536,
江戸川 (Edogawa),2017-07-02,21:01～22:00,0.0577,0.0495,0.0536,
江戸川 (Edogawa),2017-07-02,20:01～21:00,0.0565,0.0507,0.0538,
江戸川 (Edogawa),2017-07-02,19:01～20:00,0.0566,0.0504,0.0537,
江戸川 (Edogawa),2017-07-02,18:01～19:00,0.0564,0.0509,0.0538,
江戸川 (Edogawa),2017-07-02,17:01～18:00,0.0582,0.0503,0.0537,
江戸川 (Edogawa),2017-07-02,16:01～17:00,0.0565,0.0508,0.0535,
江戸川 (Edogawa),2017-07-02,15:01～16:00,0.0568,0.0498,0.0535,
江戸川 (Edogawa),2017-07-02,14:01～15:00,0.0574,0.0492,0.0535,
江戸川 (Edogawa),2017-07-02,13:01～14:00,0.0571,0.0512,0.0540,
江戸川 (Edogawa),2017-07-02,12:01～13:00,0.0577,0.0494,0.0537,
江戸川 (Edogawa),2017-07-02,11:01～12:00,0.0572,0.0516,0.0541,
江戸川 (Edogawa),2017-07-02,10:01～11:00,0.0588,0.0505,0.0535,
江戸川 (Edogawa),2017-07-02,09:01～10:00,0.0580,0.0513,0.0541,
江戸川 (Edogawa),2017-07-02,08:01～09:00,0.0568,0.0503,0.0534,
江戸川 (Edogawa),2017-07-02,07:01～08:00,0.0568,0.0493,0.0531,
江戸川 (Edogawa),2017-07-02,06:01～07:00,0.0581,0.0511,0.0536,
江戸川 (Edogawa),2017-07-02,05:01～06:00,0.0582,0.0508,0.0544,
江戸川 (Edogawa),2017-07-02,04:01～05:00,0.0583,0.0515,0.0546,
江戸川 (Edogawa),2017-07-02,03:01～04:00,0.0604,0.0527,0.0560,
江戸川 (Edogawa),2017-07-02,02:01～03:00,0.0621,0.0558,0.0591,
江戸川 (Edogawa),2017-07-02,01:01～02:00,0.0600,0.0512,0.0553,
江戸川 (Edogawa),2017-07-02,00:01～01:00,0.0568,0.0499,0.0531,
江戸川 (Edogawa),2017-07-01,23:01～24:00,0.0582,0.0488,0.0535,
江戸川 (Edogawa),2017-07-01,22:01～23:00,0.0558,0.0493,0.0534,
江戸川 (Edogawa),2017-07-01,21:01～22:00,0.0564,0.0508,0.0535,
江戸川 (Edogawa),2017-07-01,20:01～21:00,0.0565,0.0501,0.0531,
江戸川 (Edogawa),2017-07-01,19:01～20:00,0.0559,0.0493,0.0532,
江戸川 (Edogawa),2017-07-01,18:01～19:00,0.0565,0.0506,0.0532,
江戸川 (Edogawa),2017-07-01,17:01～18:00,0.0575,0.0493,0.0531,
江戸川 (Edogawa),2017-07-01,16:01～17:00,0.0560,0.0507,0.0533,
江戸川 (Edogawa),2017-07-01,15:01～16:00,0.0567,0.0507,0.0533,
江戸川 (Edogawa),2017-07-01,14:01～15:00,0.0575,0.0513,0.0541,
江戸川 (Edogawa),2017-07-01,13:01～14:00,0.0575,0.0512,0.0548,
江戸川 (Edogawa),2017-07-01,12:01～13:00,0.0585,0.0522,0.0551,
江戸川 (Edogawa),2017-07-01,11:01～12:00,0.0611,0.0534,0.0574,
江戸川 (Edogawa),2017-07-01,10:01～11:00,0.0627,0.0529,0.0573,
江戸川 (Edogawa),2017-07-01,09:01～10:00,0.0597,0.0534,0.0562,
江戸川 (Edogawa),2017-07-01,08:01～09:00,0.0626,0.0546,0.0578,
江戸川 (Edogawa),2017-07-01,07:01～08:00,0.0610,0.0522,0.0564,
江戸川 (Edogawa),2017-07-01,06:01～07:00,0.0590,0.0536,0.0564,
江戸川 (Edogawa),2017-07-01,05:01～06:00,0.0605,0.0517,0.0559,
江戸川 (Edogawa),2017-07-01,04:01～05:00,0.0595,0.0510,0.0541,
江戸川 (Edogawa),2017-07-01,03:01～04:00,0.0558,0.0501,0.0532,
江戸川 (Edogawa),2017-07-01,02:01～03:00,0.0562,0.0510,0.0534,
江戸川 (Edogawa),2017-07-01,01:01～02:00,0.0567,0.0505,0.0534,
江戸川 (Edogawa),2017-07-01,00:01～01:00,0.0568,0.0500,0.0531,
江戸川 (Edogawa),2017-06-30,23:01～24:00,0.0551,0.0488,0.0528,
江戸川 (Edogawa),2017-06-30,22:01～23:00,0.0567,0.0499,0.0531,
江戸川 (Edogawa),2017-06-30,21:01～22:00,0.0560,0.0507,0.0531,
江戸川 (Edogawa),2017-06-30,20:01～21:00,0.0561,0.0498,0.0529,
江戸川 (Edogawa),2017-06-30,19:01～20:00,0.0563,0.0495,0.0530,
江戸川 (Edogawa),2017-06-30,18:01～19:00,0.0584,0.0493,0.0533,
江戸川 (Edogawa),2017-06-30,17:01～18:00,0.0569,0.0502,0.0530,
江戸川 (Edogawa),2017-06-30,16:01～17:00,0.0560,0.0494,0.0528,
江戸川 (Edogawa),2017-06-30,15:01～16:00,0.0571,0.0510,0.0534,
江戸川 (Edogawa),2017-06-30,14:01～15:00,0.0562,0.0509,0.0539,
江戸川 (Edogawa),2017-06-30,13:01～14:00,0.0580,0.0510,0.0542,
江戸川 (Edogawa),2017-06-30,12:01～13:00,0.0584,0.0506,0.0545,
江戸川 (Edogawa),2017-06-30,11:01～12:00,0.0578,0.0517,0.0547,
江戸川 (Edogawa),2017-06-30,10:01～11:00,0.0573,0.0504,0.0543,
江戸川 (Edogawa),2017-06-30,09:01～10:00,0.0582,0.0516,0.0546,
江戸川 (Edogawa),2017-06-30,08:01～09:00,0.0586,0.0524,0.0560,
江戸川 (Edogawa),2017-06-30,07:01～08:00,0.0622,0.0548,0.0589,
江戸川 (Edogawa),2017-06-30,06:01～07:00,0.0621,0.0548,0.0578,
江戸川 (Edogawa),2017-06-30,05:01～06:00,0.0589,0.0514,0.0553,
江戸川 (Edogawa),2017-06-30,04:01～05:00,0.0570,0.0487,0.0535,
江戸川 (Edogawa),2017-06-30,03:01～04:00,0.0570,0.0508,0.0544,
江戸川 (Edogawa),2017-06-30,02:01～03:00,0.0571,0.0512,0.0539,
江戸川 (Edogawa),2017-06-30,01:01～02:00,0.0569,0.0503,0.0533,
江戸川 (Edogawa),2017-06-30,00:01～01:00,0.0569,0.0504,0.0537,
江戸川 (Edogawa),2017-06-29,23:01～24:00,0.0567,0.0511,0.0538,
江戸川 (Edogawa),2017-06-29,22:01～23:00,0.0579,0.0503,0.0538,
江戸川 (Edogawa),2017-06-29,21:01～22:00,0.0564,0.0507,0.0533,
江戸川 (Edogawa),2017-06-29,20:01～21:00,0.0562,0.0510,0.0534,
江戸川 (Edogawa),2017-06-29,19:01～20:00,0.0577,0.0498,0.0532,
江戸川 (Edogawa),2017-06-29,18:01～19:00,0.0577,0.0497,0.0536,
江戸川 (Edogawa),2017-06-29,17:01～18:00,0.0572,0.0488,0.0534,
江戸川 (Edogawa),2017-06-29,16:01～17:00,0.0568,0.0503,0.0534,
江戸川 (Edogawa),2017-06-29,15:01～16:00,0.0570,0.0503,0.0537,
江戸川 (Edogawa),2017-06-29,14:01～15:00,0.0563,0.0504,0.0536,
江戸川 (Edogawa),2017-06-29,13:01～14:00,0.0576,0.0506,0.0537,
江戸川 (Edogawa),2017-06-29,12:01～13:00,0.0563,0.0492,0.0532,
江戸川 (Edogawa),2017-06-29,11:01～12:00,0.0579,0.0501,0.0533,
江戸川 (Edogawa),2017-06-29,10:01～11:00,0.0572,0.0488,0.0527,
江戸川 (Edogawa),2017-06-29,09:01～10:00,0.0569,0.0503,0.0531,
江戸川 (Edogawa),2017-06-29,08:01～09:00,0.0566,0.0500,0.0534,
江戸川 (Edogawa),2017-06-29,07:01～08:00,0.0571,0.0496,0.0532,
江戸川 (Edogawa),2017-06-29,06:01～07:00,0.0566,0.0504,0.0532,
江戸川 (Edogawa),2017-06-29,05:01～06:00,0.0571,0.0501,0.0533,
江戸川 (Edogawa),2017-06-29,04:01～05:00,0.0575,0.0491,0.0537,
江戸川 (Edogawa),2017-06-29,03:01～04:00,0.0568,0.0497,0.0531,
江戸川 (Edogawa),2017-06-29,02:01～03:00,0.0561,0.0506,0.0534,
江戸川 (Edogawa),2017-06-29,01:01～02:00,0.0553,0.0494,0.0528,
江戸川 (Edogawa),2017-06-29,00:01～01:00,0.0564,0.0485,0.0526,
江戸川 (Edogawa),2017-06-28,23:01～24:00,0.0551,0.0504,0.0529,
江戸川 (Edogawa),2017-06-28,22:01～23:00,0.0581,0.0485,0.0531,
江戸川 (Edogawa),2017-06-28,21:01～22:00,0.0564,0.0485,0.0528,
江戸川 (Edogawa),2017-06-28,20:01～21:00,0.0581,0.0499,0.0530,
江戸川 (Edogawa),2017-06-28,19:01～20:00,0.0557,0.0488,0.0528,
江戸川 (Edogawa),2017-06-28,18:01～19:00,0.0558,0.0500,0.0526,
江戸川 (Edogawa),2017-06-28,17:01～18:00,0.0567,0.0499,0.0527,
江戸川 (Edogawa),2017-06-28,16:01～17:00,0.0583,0.0496,0.0531,
江戸川 (Edogawa),2017-06-28,15:01～16:00,0.0570,0.0497,0.0529,
江戸川 (Edogawa),2017-06-28,14:01～15:00,0.0578,0.0499,0.0535,
江戸川 (Edogawa),2017-06-28,13:01～14:00,0.0583,0.0512,0.0546,
江戸川 (Edogawa),2017-06-28,12:01～13:00,0.0588,0.0527,0.0562,
江戸川 (Edogawa),2017-06-28,11:01～12:00,0.0611,0.0536,0.0566,
江戸川 (Edogawa),2017-06-28,10:01～11:00,0.0621,0.0532,0.0579,
江戸川 (Edogawa),2017-06-28,09:01～10:00,0.0631,0.0543,0.0580,
江戸川 (Edogawa),2017-06-28,08:01～09:00,0.0622,0.0530,0.0574,
江戸川 (Edogawa),2017-06-28,07:01～08:00,0.0623,0.0514,0.0576,
江戸川 (Edogawa),2017-06-28,06:01～07:00,0.0589,0.0505,0.0546,
江戸川 (Edogawa),2017-06-28,05:01～06:00,0.0594,0.0517,0.0556,
江戸川 (Edogawa),2017-06-28,04:01～05:00,0.0620,0.0532,0.0578,
江戸川 (Edogawa),2017-06-28,03:01～04:00,0.0628,0.0530,0.0577,
江戸川 (Edogawa),2017-06-28,02:01～03:00,0.0596,0.0509,0.0557,
江戸川 (Edogawa),2017-06-28,01:01～02:00,0.0575,0.0509,0.0536,
江戸川 (Edogawa),2017-06-28,00:01～01:00,0.0563,0.0496,0.0533,
江戸川 (Edogawa),2017-06-27,23:01～24:00,0.0557,0.0504,0.0531,
江戸川 (Edogawa),2017-06-27,22:01～23:00,0.0566,0.0499,0.0535,
江戸川 (Edogawa),2017-06-27,21:01～22:00,0.0582,0.0504,0.0536,
江戸川 (Edogawa),2017-06-27,20:01～21:00,0.0567,0.0499,0.0533,
江戸川 (Edogawa),2017-06-27,19:01～20:00,0.0569,0.0495,0.0533,
江戸川 (Edogawa),2017-06-27,18:01～19:00,0.0567,0.0499,0.0529,
江戸川 (Edogawa),2017-06-27,17:01～18:00,0.0592,0.0492,0.0533,
江戸川 (Edogawa),2017-06-27,16:01～17:00,0.0558,0.0506,0.0532,
江戸川 (Edogawa),2017-06-27,15:01～16:00,0.0554,0.0502,0.0530,
江戸川 (Edogawa),2017-06-27,14:01～15:00,0.0561,0.0496,0.0531,
江戸川 (Edogawa),2017-06-27,13:01～14:00,0.0571,0.0501,0.0531,
江戸川 (Edogawa),2017-06-27,12:01～13:00,0.0559,0.0499,0.0533,
江戸川 (Edogawa),2017-06-27,11:01～12:00,0.0564,0.0498,0.0532,
江戸川 (Edogawa),2017-06-27,10:01～11:00,0.0575,0.0492,0.0532,
江戸川 (Edogawa),2017-06-27,09:01～10:00,0.0563,0.0496,0.0532,
江戸川 (Edogawa),2017-06-27,08:01～09:00,0.0564,0.0496,0.0534,
江戸川 (Edogawa),2017-06-27,07:01～08:00,0.0578,0.0517,0.0545,
江戸川 (Edogawa),2017-06-27,06:01～07:00,0.0636,0.0529,0.0570,
江戸川 (Edogawa),2017-06-27,05:01～06:00,0.0647,0.0573,0.0613,
江戸川 (Edogawa),2017-06-27,04:01～05:00,0.0630,0.0524,0.0572,
江戸川 (Edogawa),2017-06-27,03:01～04:00,0.0577,0.0513,0.0546,
江戸川 (Edogawa),2017-06-27,02:01～03:00,0.0588,0.0515,0.0556,
江戸川 (Edogawa),2017-06-27,01:01～02:00,0.0591,0.0530,0.0561,
江戸川 (Edogawa),2017-06-27,00:01～01:00,0.0584,0.0516,0.0548,
江戸川 (Edogawa),2017-06-26,23:01～24:00,0.0564,0.0504,0.0533,
江戸川 (Edogawa),2017-06-26,22:01～23:00,0.0566,0.0496,0.0534,
江戸川 (Edogawa),2017-06-26,21:01～22:00,0.0576,0.0494,0.0535,
江戸川 (Edogawa),2017-06-26,20:01～21:00,0.0575,0.0504,0.0536,
江戸川 (Edogawa),2017-06-26,19:01～20:00,0.0562,0.0507,0.0533,
江戸川 (Edogawa),2017-06-26,18:01～19:00,0.0569,0.0507,0.0534,
江戸川 (Edogawa),2017-06-26,17:01～18:00,0.0576,0.0503,0.0531,
江戸川 (Edogawa),2017-06-26,16:01～17:00,0.0566,0.0506,0.0535,
江戸川 (Edogawa),2017-06-26,15:01～16:00,0.0563,0.0494,0.0531,
江戸川 (Edogawa),2017-06-26,14:01～15:00,0.0575,0.0497,0.0536,
江戸川 (Edogawa),2017-06-26,13:01～14:00,0.0563,0.0482,0.0529,
江戸川 (Edogawa),2017-06-26,12:01～13:00,0.0568,0.0505,0.0531,
江戸川 (Edogawa),2017-06-26,11:01～12:00,0.0558,0.0499,0.0532,
江戸川 (Edogawa),2017-06-26,10:01～11:00,0.0574,0.0500,0.0535,
江戸川 (Edogawa),2017-06-26,09:01～10:00,0.0565,0.0508,0.0534,
江戸川 (Edogawa),2017-06-26,08:01～09:00,0.0562,0.0504,0.0533,
江戸川 (Edogawa),2017-06-26,07:01～08:00,0.0567,0.0496,0.0534,
江戸川 (Edogawa),2017-06-26,06:01～07:00,0.0556,0.0488,0.0526,
江戸川 (Edogawa),2017-06-26,05:01～06:00,0.0576,0.0496,0.0530,
江戸川 (Edogawa),2017-06-26,04:01～05:00,0.0568,0.0487,0.0532,
江戸川 (Edogawa),2017-06-26,03:01～04:00,0.0554,0.0491,0.0527,
江戸川 (Edogawa),2017-06-26,02:01～03:00,0.0568,0.0482,0.0526,
江戸川 (Edogawa),2017-06-26,01:01～02:00,0.0563,0.0502,0.0528,
江戸川 (Edogawa),2017-06-26,00:01～01:00,0.0556,0.0486,0.0526,
